Dewpoint
47 47 47 52 42 45 43 44 48 47 50 53 52 51 50 52 51 47 57 58 62 63 65 65 66 66 66 67 67 67 66 66 66 67 68 68 68 68 68 68 68 67 66 67 67 67 65 65 65
49 47 51 50 39 37 41 44 49 51 52 53 51 51 50 49 52 54 56 60 61 63 64 64 64 64 64 65 65 66 66 66 66 66 66 67 68 68 68 68 68 67 66 66 67 67 65 65 65
56 54 45 45 45 43 42 50 52 52 53 51 50 49 48 49 50 52 55 61 64 64 64 63 64 63 63 62 63 63 66 66 66 66 66 65 66 67 67 67 67 67 66 65 66 66 65 65 64
51 50 50 44 46 49 50 51 52 51 51 51 49 47 49 50 50 51 56 62 64 65 65 65 64 65 64 64 65 65 65 66 65 65 65 65 65 64 66 66 66 65 65 65 64 65 64 63 63
53 50 44 46 47 50 51 51 51 49 49 48 48 45 47 49 50 46 54 61 62 65 65 64 64 64 64 64 63 63 63 63 62 63 66 66 66 65 64 64 64 64 64 64 64 63 63 64 63
47 49 44 44 47 49 50 51 50 48 47 47 46 45 44 44 42 42 41 57 62 63 65 65 64 62 62 63 62 62 61 61 61 61 63 64 65 64 64 64 64 64 63 63 63 63 63 62 62
46 46 45 46 46 46 49 50 49 49 48 45 48 45 45 40 38 36 44 53 53 52 52 52 57 61 61 61 62 59 57 56 56 58 60 61 62 65 65 65 65 66 66 65 65 65 63 62 61
48 47 44 44 44 45 48 48 47 47 46 44 42 45 40 37 33 39 49 50 49 49 49 49 48 51 59 58 59 58 56 53 53 54 56 58 58 61 63 64 64 64 63 63 63 65 65 64 63
47 44 43 43 43 44 47 45 42 38 36 32 34 36 35 31 37 41 40 41 44 45 46 47 47 47 47 51 51 52 52 51 50 50 52 53 53 54 61 59 60 62 61 62 62 63 62 63 63
44 43 44 45 45 45 46 45 41 38 33 30 30 29 29 30 34 38 38 40 42 43 44 45 46 45 45 45 47 48 48 48 48 48 48 49 50 51 57 58 54 56 56 60 61 61 62 62 63
46 44 45 46 46 46 46 44 43 39 39 32 28 28 28 29 33 36 37 39 40 42 42 44 45 44 44 45 46 47 47 47 48 48 48 48 49 49 48 47 48 48 50 50 53 54 57 60 62
45 46 46 46 47 46 45 41 38 38 39 35 29 28 28 29 31 33 34 36 38 40 41 42 44 44 44 44 45 47 48 47 47 47 47 47 47 47 45 44 46 46 46 44 45 46 47 50 58
45 46 46 45 40 35 34 32 33 35 33 29 28 28 29 29 31 32 34 35 38 39 40 40 42 43 43 41 43 44 46 46 46 47 46 47 46 46 44 43 45 45 44 43 43 43 44 45 46
41 36 33 30 28 28 27 26 26 28 28 26 27 28 26 29 31 33 33 33 35 39 40 40 40 42 41 40 42 43 44 44 44 44 45 45 45 45 45 42 43 43 43 42 42 42 43 43 44
31 28 28 28 27 26 26 25 25 27 27 27 26 26 26 27 31 32 33 33 34 37 40 40 41 40 41 40 41 42 43 41 41 42 42 43 45 43 44 43 43 43 42 42 41 40 41 41 42
30 30 27 28 27 27 25 23 25 27 26 25 24 25 25 27 31 33 34 35 36 36 37 37 37 38 40 41 41 42 42 41 40 42 41 41 44 43 43 43 43 43 42 42 40 40 39 39 39
30 27 26 27 28 27 25 23 25 26 24 22 23 25 25 26 29 32 34 34 35 36 34 34 36 37 37 40 40 41 41 41 40 40 42 40 42 43 42 42 43 43 41 43 41 39 39 37 37
26 23 23 24 27 23 24 23 24 24 22 21 22 24 25 26 28 32 33 34 35 35 36 35 35 37 35 36 36 37 40 41 40 38 40 41 40 40 41 41 42 44 41 41 41 39 39 37 37
23 22 21 22 23 18 21 22 23 22 20 20 21 24 25 25 28 32 33 34 35 37 34 34 34 36 36 33 32 32 32 36 38 38 38 39 39 39 40 40 40 42 41 41 41 40 40 36 38
20 21 17 16 16 16 17 19 21 20 19 20 21 23 24 27 29 32 33 34 34 33 35 34 34 36 37 37 38 35 35 36 38 40 38 38 38 39 39 40 39 40 39 40 40 40 40 39 38
16 15 11 8 10 12 18 18 20 20 19 19 21 22 24 27 29 31 32 32 32 33 34 34 35 36 37 37 38 37 38 37 38 38 39 39 38 39 38 40 40 40 41 39 40 41 40 39 38
7 10 9 7 5 3 14 9 18 19 18 18 19 21 24 27 30 31 32 32 33 33 35 35 35 36 36 36 37 35 35 35 37 39 40 41 41 38 39 40 41 40 42 39 40 42 40 41 38
7 12 9 8 6 7 8 9 6 18 18 18 17 20 24 27 29 31 31 33 34 33 34 35 36 36 36 36 37 37 36 38 40 41 43 43 43 43 43 43 42 43 42 42 41 40 40 41 40
12 12 16 14 13 7 10 9 7 15 17 18 18 19 23 26 29 31 33 34 34 34 34 34 34 35 36 37 38 38 39 41 41 43 43 44 44 45 43 44 45 44 44 44 44 44 43 42 41
15 15 12 3 6 2 13 11 8 14 17 17 17 20 23 26 28 30 32 34 34 35 34 34 35 35 36 39 42 42 42 42 41 42 42 41 41 41 39 40 39 38 40 40 41 41 42 42 43
12 16 17 8 16 20 19 7 7 18 18 19 19 20 24 25 28 29 32 34 35 35 35 35 35 37 40 41 41 41 41 40 39 39 38 38 38 36 36 34 34 35 36 35 35 35 36 40 40
15 12 28 21 25 21 17 14 19 17 18 19 19 22 25 25 27 29 33 33 35 35 35 36 37 38 40 41 40 38 37 35 33 33 34 33 33 30 32 31 31 33 32 32 32 34 35 34 33
24 26 18 22 7 1 12 14 10 15 16 18 20 23 26 26 26 29 31 33 34 35 37 37 38 38 40 40 37 34 32 31 30 31 30 30 29 30 29 30 31 31 30 30 32 32 31 29 29
19 22 29 24 16 3 10 6 18 19 17 16 20 26 28 26 26 28 30 33 35 36 36 35 31 31 32 33 31 30 30 29 29 30 30 27 29 29 30 30 30 29 29 30 30 30 29 27 27
22 23 29 14 12 25 23 15 22 21 21 18 19 28 30 27 28 30 33 35 35 35 31 27 25 24 25 27 29 29 29 28 28 28 26 28 27 29 28 27 27 28 30 30 29 29 30 27 27
Wind_Speed
6 3 3 6 12 12 6 7 4 8 2 9 9 10 11 7 8 7 7 8 7 9 8 12 17 18 17 18 18 18 18 18 17 16 16 15 14 14 14 14 14 15 16 16 13 9 10 12 12
5 4 7 7 11 11 5 3 7 4 10 4 10 10 12 10 6 4 4 9 10 9 9 11 15 15 16 16 17 17 16 16 16 16 15 13 12 11 11 11 12 12 13 15 14 10 10 10 9
6 8 7 7 8 10 6 7 11 9 5 3 3 5 3 2 3 2 5 10 11 12 8 11 12 14 14 14 15 15 14 14 15 14 14 13 12 10 9 9 9 10 11 12 12 10 9 8 8
3 6 7 15 19 8 11 16 9 3 5 9 4 6 4 2 2 5 5 11 11 9 9 10 11 13 14 14 14 15 15 15 16 15 13 11 8 8 8 8 8 8 8 9 10 9 8 9 8
7 7 10 13 20 13 13 13 12 7 5 5 2 4 5 2 6 6 6 7 12 10 9 9 10 12 12 14 15 15 16 16 18 17 17 19 6 8 9 9 10 10 10 9 9 8 9 10 12
6 5 8 11 8 9 10 14 14 15 11 11 8 6 1 4 2 7 10 5 11 10 8 7 10 10 10 11 15 16 18 18 19 21 20 20 19 7 11 12 13 13 11 11 12 13 13 13 15
11 8 5 17 15 8 6 7 6 8 4 7 4 6 1 2 2 7 4 10 15 16 15 13 10 7 10 12 12 18 20 20 21 20 20 18 20 15 13 17 16 17 14 13 14 15 12 14 16
8 7 14 5 13 7 7 5 7 6 3 1 2 5 6 2 7 4 12 16 18 17 16 15 15 12 8 13 17 18 20 22 21 21 19 19 18 15 14 14 14 16 16 16 15 18 13 14 17
6 7 10 9 14 11 11 6 5 7 5 4 2 5 5 4 8 14 15 16 15 15 16 18 19 18 15 14 17 18 20 22 21 19 20 15 14 14 13 18 18 16 17 17 19 17 15 14 13
6 6 7 7 10 15 12 9 8 5 5 7 7 5 3 5 11 13 16 16 17 15 14 16 16 17 15 13 16 18 17 18 18 18 18 16 16 15 13 15 18 19 21 18 19 19 17 14 12
6 5 12 9 15 18 13 12 4 15 5 4 14 10 6 8 15 17 14 15 15 12 14 14 14 14 16 17 14 16 16 16 16 19 19 16 15 15 15 14 15 16 19 16 16 16 16 16 13
14 9 10 13 14 13 16 7 7 2 4 9 15 10 6 9 16 16 15 14 14 14 11 13 13 14 12 14 15 14 16 16 16 17 18 17 15 16 17 15 15 15 15 17 16 14 16 17 15
25 17 15 19 19 12 15 8 6 12 11 10 10 8 9 14 16 14 15 12 12 12 9 10 12 11 10 14 14 15 15 16 16 17 18 16 17 18 16 16 16 16 16 16 16 15 15 15 15
15 26 20 21 17 10 18 8 4 6 9 9 6 11 14 17 14 13 14 11 12 10 8 7 9 8 10 10 13 13 14 14 16 17 17 18 16 16 16 15 16 17 17 17 15 15 15 13 13
29 33 20 19 8 10 17 10 8 8 12 11 13 12 13 15 14 15 13 11 11 10 6 5 6 6 7 7 10 12 12 13 15 15 17 18 17 17 17 15 15 16 16 17 16 18 16 16 16
18 7 10 10 18 13 4 6 11 12 15 14 15 15 15 13 17 15 14 13 10 9 8 5 6 6 4 4 7 9 9 11 11 12 13 16 16 16 16 16 16 16 16 15 16 17 17 17 17
1 7 7 10 21 9 7 7 17 17 15 16 17 16 15 13 12 13 15 14 12 9 7 6 7 5 8 7 8 8 9 9 8 9 9 12 13 14 15 16 16 15 16 15 15 14 13 18 20
9 7 5 10 20 9 16 13 23 21 20 21 18 18 19 18 18 17 15 14 12 9 6 7 8 8 6 6 6 7 7 4 4 6 6 7 9 11 13 14 15 14 15 16 17 16 16 9 18
10 11 12 7 10 11 17 14 28 24 21 22 22 21 22 22 17 19 17 14 12 9 8 6 8 7 7 6 3 3 4 2 1 1 3 4 5 8 9 9 11 12 13 14 15 12 16 16 21
4 15 8 3 6 10 7 17 23 24 22 27 27 25 24 18 17 18 18 15 14 12 10 7 8 7 7 4 3 3 3 1 1 1 2 1 1 2 4 5 6 6 8 12 13 13 12 7 14
7 19 16 8 8 2 11 3 19 19 13 24 23 27 22 27 26 21 21 18 14 13 13 11 9 8 7 8 7 6 4 2 5 4 3 4 3 3 1 0 2 3 3 6 7 7 10 11 10
8 0 5 13 10 6 11 6 15 24 26 24 24 24 25 23 22 22 22 19 18 14 15 14 11 9 7 6 6 5 3 2 2 3 5 11 6 6 6 5 5 5 4 5 4 4 3 3 11
4 4 7 8 4 2 3 5 5 19 24 29 27 26 27 28 29 26 25 24 22 19 18 16 14 9 8 7 7 5 3 2 7 9 13 15 14 15 13 11 13 13 13 12 11 8 7 4 5
3 5 9 6 2 6 9 13 8 12 30 26 22 27 29 29 26 25 24 21 22 17 17 15 14 13 11 9 1 2 3 8 12 13 15 13 13 14 17 16 16 15 16 17 17 15 13 14 10
7 7 3 2 2 9 3 6 19 17 14 29 36 28 29 29 26 24 24 23 23 21 19 15 13 8 6 4 11 13 14 13 15 14 13 14 14 13 17 17 17 16 16 16 16 15 15 16 15
2 5 7 5 5 5 10 7 6 10 20 18 25 25 22 25 25 26 27 26 25 24 20 17 11 11 15 16 14 13 14 14 13 14 13 13 13 12 13 14 15 16 16 16 16 14 14 14 15
2 3 3 2 0 4 6 7 5 4 5 9 19 19 24 25 26 26 25 25 24 23 22 14 19 16 16 16 15 14 13 14 14 13 13 12 13 12 14 15 15 15 15 15 15 14 13 12 13
1 4 3 1 5 6 6 7 11 7 8 4 10 22 21 21 22 23 24 23 21 16 15 20 17 18 16 15 14 13 13 13 12 12 13 13 12 13 15 16 15 15 15 15 13 11 9 11 11
4 4 2 4 4 4 4 6 3 15 11 12 9 18 22 25 25 23 20 17 15 19 21 19 19 20 17 15 13 12 11 10 10 11 10 11 12 13 14 14 13 14 15 16 16 14 8 11 11
3 6 8 7 6 5 2 10 6 10 8 7 9 16 20 21 19 18 19 22 21 19 18 19 18 19 15 13 11 10 9 9 10 9 9 10 11 10 10 12 13 13 14 15 17 17 13 16 16
Wind_Direction
229 189 115 66 72 65 62 83 116 304 3 38 64 91 96 42 51 77 293 303 104 61 44 40 41 43 43 45 46 42 41 41 41 44 42 48 52 55 55 54 51 48 39 34 35 49 53 54 53
203 125 55 89 90 75 17 279 68 62 125 147 51 84 80 69 23 80 47 82 87 76 58 56 55 53 48 45 47 41 42 41 39 39 38 38 42 50 55 51 49 49 44 39 42 42 46 50 46
108 60 62 66 72 100 158 82 97 111 179 221 107 53 22 35 331 44 344 115 100 84 76 69 63 62 58 54 52 48 41 38 35 33 32 29 29 31 38 47 50 44 43 44 48 49 39 36 29
32 34 62 78 94 66 110 126 125 171 54 66 117 59 87 214 312 340 4 120 99 94 81 75 70 68 67 63 59 54 47 38 37 27 18 15 23 30 22 19 21 29 35 41 41 40 25 14 3
36 53 72 84 71 102 116 131 137 136 109 46 102 74 75 330 288 348 32 91 98 99 87 77 74 74 68 65 56 53 50 46 36 27 26 23 9 20 13 12 11 9 9 12 14 9 357 348 343
54 75 97 108 104 99 88 106 101 96 111 112 86 85 54 300 304 335 342 71 94 98 92 67 57 57 69 68 64 58 52 46 33 29 27 24 23 23 19 10 4 358 358 3 3 352 343 335 330
98 72 75 116 125 97 118 96 74 96 109 40 116 101 321 308 333 324 325 79 71 66 58 47 31 30 42 44 56 60 51 41 34 26 29 30 30 41 24 21 21 17 9 6 5 345 335 332 325
107 89 135 133 142 115 135 97 100 85 78 144 61 138 145 236 323 51 93 79 68 58 52 41 29 37 36 39 53 60 51 42 34 25 18 21 25 30 31 24 25 23 25 23 11 19 9 337 323
116 94 150 139 147 147 139 111 36 41 101 54 66 122 153 256 120 118 100 85 74 58 48 42 41 46 48 55 53 57 48 40 32 25 18 19 20 12 27 28 24 21 19 15 15 13 7 2 354
65 103 144 129 135 139 131 119 135 121 105 77 97 109 182 130 114 107 93 84 79 65 46 46 43 53 53 49 57 59 52 43 34 28 21 17 19 25 32 19 16 13 10 8 7 4 358 2 357
37 82 104 114 115 127 139 138 122 129 113 175 150 154 160 105 103 107 95 89 86 78 61 44 47 47 53 51 58 61 55 45 33 29 25 21 24 21 20 20 17 17 14 12 9 5 359 351 357
95 65 106 119 107 126 141 120 113 18 163 160 162 166 157 120 116 117 105 93 84 73 64 49 48 47 48 56 62 69 58 47 37 29 27 25 24 26 23 23 19 21 13 12 7 2 357 2 354
90 100 94 104 102 99 95 84 97 104 133 146 157 161 143 127 116 105 101 92 89 84 70 60 57 54 58 58 64 69 67 55 44 36 28 31 29 27 23 22 23 22 14 12 6 1 358 355 351
118 102 101 101 100 116 112 119 77 175 160 158 183 164 126 128 119 112 103 104 93 114 96 72 64 66 74 69 79 77 70 59 50 41 33 33 36 31 30 27 23 20 16 10 2 0 358 357 353
111 108 105 122 125 134 118 43 115 175 180 196 167 143 128 125 132 127 130 118 109 98 133 86 84 59 64 61 74 82 79 68 59 49 38 37 39 36 35 32 25 19 16 12 6 4 3 5 357
107 86 128 194 151 177 96 163 186 186 174 162 154 144 137 137 132 138 137 126 115 105 98 78 52 42 42 74 81 99 90 75 66 60 52 45 40 39 37 33 28 22 21 18 10 5 5 5 357
316 159 173 182 194 155 187 160 201 190 181 172 168 157 149 141 146 149 138 137 137 135 112 67 32 34 58 117 109 126 106 87 74 67 60 54 48 41 40 33 28 24 22 16 11 10 10 8 355
175 146 206 185 200 179 180 199 186 194 179 176 177 169 166 166 166 161 152 152 145 141 130 97 58 56 77 100 100 97 103 103 95 84 75 67 64 58 48 36 29 22 20 17 13 11 7 4 353
172 168 172 228 192 177 193 190 186 191 186 183 185 180 178 175 172 165 162 151 141 149 131 108 89 56 54 37 44 82 119 133 114 73 88 76 69 62 61 54 41 28 23 13 13 3 6 4 1
145 165 191 192 189 187 198 209 192 194 199 190 191 194 188 180 170 167 164 163 163 155 152 134 106 76 81 67 53 136 136 150 132 263 294 348 18 76 80 56 47 44 33 16 11 18 4 357 16
145 168 174 171 169 162 149 244 207 221 210 206 200 197 190 179 175 173 172 169 161 156 161 161 135 112 101 87 90 87 83 50 16 355 357 286 258 261 322 45 346 9 20 26 5 4 19 357 349
116 273 190 137 147 215 178 274 211 212 216 210 208 199 192 185 182 178 172 172 173 170 165 170 157 144 134 120 96 96 99 46 269 295 348 349 340 299 278 287 295 314 320 322 329 327 336 5 343
137 108 135 165 159 325 232 264 257 185 218 221 214 204 194 190 185 184 182 179 181 171 167 168 168 171 178 170 167 168 189 291 359 12 29 24 25 31 13 353 354 342 335 321 313 304 292 285 300
100 65 43 73 53 268 240 210 261 193 219 214 216 207 196 192 190 185 184 173 177 175 167 171 172 198 202 202 139 36 19 55 56 40 41 32 29 35 23 20 18 13 9 4 354 340 323 307 293
88 79 13 310 240 242 351 230 245 234 230 207 205 205 197 189 185 179 175 173 173 176 174 183 186 204 186 115 96 93 88 78 66 54 48 38 28 30 17 19 17 13 10 14 12 12 5 1 355
106 147 172 228 233 289 304 244 253 293 235 214 205 202 186 182 182 180 175 173 176 175 181 186 161 119 122 111 101 92 85 78 69 60 54 44 35 31 23 22 18 16 17 15 10 7 7 18 19
195 187 148 139 295 262 256 282 293 58 109 194 203 183 183 179 178 177 172 173 175 178 185 171 135 125 122 116 106 90 82 75 67 57 51 47 36 25 23 21 16 16 15 8 7 7 25 27 18
58 145 163 94 239 244 273 269 248 240 186 145 192 194 183 172 169 168 172 176 177 176 135 129 124 121 114 107 95 86 79 68 58 51 44 38 28 25 18 15 16 10 2 358 3 2 10 12 0
169 191 94 136 172 232 279 261 244 297 222 186 192 195 176 172 169 165 168 163 138 122 121 119 113 108 100 96 94 84 73 64 55 54 50 32 29 21 24 21 11 360 349 347 344 341 331 339 335
230 214 173 199 223 229 222 273 339 13 269 226 185 189 177 161 152 140 130 123 117 117 115 111 104 98 96 94 86 77 67 58 59 58 41 35 30 26 22 8 1 350 343 341 335 325 316 327 332